Tracking 30743 objects as of 20-Jun-2025
HD Live streaming from Space Station
objects crossing your sky now

SL-8 R/B

Track SL-8 R/B now!
10-day predictions


NORAD ID: 10677
Int'l Code: 1978-019B
Perigee: 750.1 km
Apogee: 771.3 km
Inclination: 74.0 °
Period: 99.9 minutes
Semi major axis: 7131 km
RCS: 4.4372 m2 (large)
Launch date: February 17, 1978
Source: Commonwealth of Independent States (former USSR) (CIS)
Launch site: PLESETSK MISSILE AND SPACE COMPLEX (PKMTR)

Note: This is a ROCKET BODY
Your satellite tracking list
Your tracking list is empty




NASA's NSSDC Master Catalog

Two Line Element Set (TLE):
1 10677U 78019B   25171.59081254  .00000194  00000-0  67946-4 0  9996
2 10677  74.0387 293.4838 0014869   4.2426 355.8853 14.41505266483382
Source of the keplerian elements: AFSPC